�������l�o���
Date,Time,MP-1(��Sv/h),MP-2(��Sv/h),MP-3(��Sv/h),MP-4(��Sv/h),MP-5(��Sv/h),MP-6(��Sv/h),MP-7(��Sv/h),MP-8(��Sv/h),����,����(m/s),���J
2021/06/14,00:00,0.644,0.955,0.601,1.163,0.836,0.377,0.658,0.610,�k�k��,1.2,��
2021/06/14,00:10,0.645,0.956,0.601,1.164,0.838,0.378,0.656,0.610,�k�k��,2.5,��
2021/06/14,00:20,0.644,0.956,0.601,1.164,0.839,0.379,0.657,0.613,�k�k��,2.5,��
2021/06/14,00:30,0.642,0.955,0.602,1.165,0.838,0.378,0.656,0.612,�k,2.6,��
2021/06/14,00:40,0.644,0.954,0.602,1.164,0.838,0.379,0.656,0.612,�k,3.4,��
2021/06/14,00:50,0.644,0.954,0.602,1.164,0.835,0.376,0.656,0.611,�k,3.7,��
2021/06/14,01:00,0.642,0.953,0.601,1.163,0.835,0.377,0.657,0.613,�k,3.1,��
2021/06/14,01:10,0.643,0.955,0.600,1.162,0.836,0.378,0.658,0.612,�k�k��,2.0,��
2021/06/14,01:20,0.642,0.952,0.601,1.161,0.837,0.377,0.656,0.612,�k�k��,2.5,��
2021/06/14,01:30,0.643,0.954,0.600,1.163,0.835,0.378,0.658,0.612,�k��,2.3,��
2021/06/14,01:40,0.643,0.954,0.600,1.164,0.837,0.377,0.657,0.612,�k��,1.5,�L
2021/06/14,01:50,0.644,0.957,0.602,1.164,0.838,0.377,0.657,0.611,�k��,1.2,��
2021/06/14,02:00,0.642,0.954,0.601,1.162,0.838,0.377,0.658,0.612,�k�k��,2.2,��
2021/06/14,02:10,0.643,0.954,0.601,1.166,0.838,0.377,0.658,0.610,�k�k��,2.6,��
2021/06/14,02:20,0.645,0.956,0.601,1.163,0.837,0.378,0.658,0.611,�k��,1.7,��
2021/06/14,02:30,0.644,0.955,0.600,1.165,0.837,0.379,0.658,0.611,�k��,1.9,��
2021/06/14,02:40,0.642,0.956,0.601,1.163,0.838,0.378,0.656,0.611,�k,2.2,��
2021/06/14,02:50,0.643,0.954,0.601,1.165,0.837,0.378,0.657,0.611,�k��,1.5,��
2021/06/14,03:00,0.644,0.953,0.601,1.163,0.837,0.378,0.659,0.611,�k�k��,1.2,��
2021/06/14,03:10,0.644,0.954,0.600,1.160,0.837,0.377,0.656,0.612,�k,1.2,��
2021/06/14,03:20,0.643,0.955,0.601,1.163,0.836,0.378,0.657,0.612,�k�k��,2.0,��
2021/06/14,03:30,0.642,0.954,0.601,1.162,0.835,0.377,0.659,0.611,�k�k��,1.7,��
2021/06/14,03:40,0.642,0.954,0.602,1.163,0.836,0.377,0.657,0.613,�k�k��,1.2,��
2021/06/14,03:50,0.643,0.953,0.599,1.161,0.837,0.377,0.655,0.611,�k,2.0,��
2021/06/14,04:00,0.642,0.953,0.601,1.161,0.836,0.377,0.656,0.612,-,CALM,��
2021/06/14,04:10,0.642,0.953,0.602,1.162,0.836,0.378,0.656,0.610,�k��,0.6,��
2021/06/14,04:20,0.641,0.952,0.599,1.162,0.835,0.376,0.656,0.612,��,0.6,��
2021/06/14,04:30,0.641,0.952,0.601,1.161,0.836,0.377,0.656,0.611,��,1.1,��
2021/06/14,04:40,0.643,0.951,0.600,1.163,0.836,0.377,0.656,0.610,��쐼,0.9,��
2021/06/14,04:50,0.643,0.953,0.600,1.161,0.835,0.375,0.655,0.612,�쐼,1.4,��
2021/06/14,05:00,0.643,0.953,0.601,1.163,0.835,0.375,0.656,0.612,�k��,0.8,��
2021/06/14,05:10,0.642,0.954,0.599,1.162,0.836,0.377,0.656,0.612,�k,1.2,��
2021/06/14,05:20,0.643,0.953,0.600,1.161,0.834,0.375,0.656,0.610,�k,1.2,��
2021/06/14,05:30,0.643,0.955,0.600,1.160,0.835,0.377,0.656,0.612,�k�k��,1.4,��
2021/06/14,05:40,0.642,0.953,0.600,1.163,0.836,0.378,0.655,0.611,�k�k��,1.9,��
2021/06/14,05:50,0.641,0.952,0.601,1.163,0.835,0.375,0.657,0.612,�k�k��,2.2,��
2021/06/14,06:00,0.644,0.952,0.601,1.161,0.836,0.377,0.657,0.613,�k�k��,2.0,��
2021/06/14,06:10,0.642,0.954,0.600,1.164,0.837,0.377,0.655,0.611,�k,1.2,��
2021/06/14,06:20,0.642,0.954,0.602,1.160,0.838,0.378,0.657,0.610,�k�k��,1.2,��
2021/06/14,06:30,0.643,0.952,0.600,1.164,0.837,0.377,0.655,0.612,�k�k��,2.0,��
2021/06/14,06:40,0.642,0.953,0.601,1.163,0.834,0.376,0.657,0.611,�k�k��,2.3,��
2021/06/14,06:50,0.642,0.954,0.602,1.163,0.836,0.375,0.657,0.612,�k,3.4,��
2021/06/14,07:00,0.641,0.953,0.601,1.162,0.834,0.375,0.655,0.610,�k,2.8,��
2021/06/14,07:10,0.641,0.949,0.601,1.161,0.835,0.375,0.655,0.609,�k�k��,3.3,��
2021/06/14,07:20,0.641,0.953,0.599,1.162,0.834,0.376,0.655,0.609,�k,3.2,��
2021/06/14,07:30,0.641,0.950,0.599,1.159,0.835,0.376,0.654,0.609,�k,3.4,��
2021/06/14,07:40,0.638,0.951,0.598,1.162,0.835,0.375,0.654,0.611,�k�k��,3.4,��
2021/06/14,07:50,0.640,0.949,0.599,1.163,0.834,0.375,0.655,0.611,�k,3.1,��
2021/06/14,08:00,0.639,0.950,0.598,1.161,0.833,0.375,0.655,0.608,�k,3.4,��
2021/06/14,08:10,0.640,0.948,0.598,1.162,0.833,0.376,0.653,0.608,�k�k��,4.7,��
2021/06/14,08:20,0.640,0.946,0.597,1.163,0.833,0.374,0.655,0.609,�k,5.7,��
2021/06/14,08:30,0.639,0.948,0.596,1.162,0.833,0.375,0.653,0.607,�k,5.5,��
2021/06/14,08:40,0.639,0.947,0.597,1.160,0.834,0.374,0.655,0.607,�k�k��,5.9,��
2021/06/14,08:50,0.640,0.949,0.596,1.161,0.833,0.374,0.652,0.610,�k�k��,5.5,��
2021/06/14,09:00,0.639,0.951,0.598,1.163,0.834,0.373,0.654,0.609,�k�k��,4.2,��
2021/06/14,09:10,0.638,0.948,0.598,1.160,0.834,0.375,0.655,0.608,�k,4.2,��
2021/06/14,09:20,0.640,0.949,0.599,1.161,0.833,0.374,0.654,0.608,�k�k��,4.5,��
2021/06/14,09:30,0.640,0.948,0.597,1.160,0.833,0.375,0.654,0.609,�k,4.3,��
2021/06/14,09:40,0.641,0.948,0.597,1.161,0.834,0.373,0.655,0.608,�k�k��,3.7,��
2021/06/14,09:50,0.642,0.950,0.598,1.161,0.831,0.374,0.654,0.608,�k,4.0,��
2021/06/14,10:00,0.641,0.948,0.598,1.160,0.832,0.375,0.654,0.608,�k,4.2,��
2021/06/14,10:10,0.640,0.949,0.597,1.161,0.832,0.375,0.655,0.609,�k,4.9,��
2021/06/14,10:20,0.641,0.948,0.595,1.162,0.834,0.376,0.654,0.608,�k�k��,5.4,��
2021/06/14,10:30,0.640,0.948,0.596,1.160,0.831,0.375,0.655,0.607,�k,6.5,��
2021/06/14,10:40,0.640,0.950,0.596,1.160,0.833,0.375,0.654,0.609,�k�k��,6.3,��
2021/06/14,10:50,0.640,0.949,0.596,1.160,0.828,0.374,0.655,0.608,�k�k��,6.2,��
2021/06/14,11:00,0.640,0.948,0.597,1.160,0.829,0.374,0.653,0.609,�k�k��,7.1,��
2021/06/14,11:10,0.642,0.949,0.596,1.161,0.832,0.373,0.653,0.609,�k�k��,6.7,��
2021/06/14,11:20,0.641,0.949,0.597,1.161,0.832,0.374,0.653,0.609,�k�k��,6.5,��
2021/06/14,11:30,0.642,0.950,0.596,1.161,0.831,0.376,0.652,0.608,�k�k��,5.2,��
2021/06/14,11:40,0.639,0.948,0.596,1.160,0.834,0.374,0.655,0.610,�k�k��,4.8,��
2021/06/14,11:50,0.640,0.950,0.595,1.161,0.834,0.374,0.656,0.609,�k,5.0,��
2021/06/14,12:00,0.640,0.949,0.597,1.160,0.832,0.375,0.652,0.609,�k�k��,4.2,��
2021/06/14,12:10,0.642,0.949,0.596,1.159,0.833,0.375,0.654,0.609,�k,4.7,��
2021/06/14,12:20,0.642,0.951,0.598,1.159,0.833,0.375,0.656,0.609,�k�k��,4.1,��
2021/06/14,12:30,0.643,0.950,0.597,1.162,0.832,0.376,0.655,0.608,�k�k��,4.4,��
2021/06/14,12:40,0.643,0.950,0.599,1.161,0.834,0.376,0.655,0.609,�k�k��,3.9,��
2021/06/14,12:50,0.642,0.951,0.599,1.161,0.834,0.376,0.655,0.609,�k�k��,3.5,��
2021/06/14,13:00,0.642,0.951,0.599,1.160,0.834,0.375,0.653,0.608,�k��,2.3,��
2021/06/14,13:10,0.641,0.951,0.599,1.159,0.834,0.375,0.655,0.608,�k��,2.9,��
2021/06/14,13:20,0.641,0.951,0.598,1.161,0.835,0.375,0.655,0.608,�k��,2.6,��
2021/06/14,13:30,0.642,0.949,0.599,1.158,0.835,0.376,0.654,0.610,���k��,2.9,��
2021/06/14,13:40,0.642,0.950,0.599,1.159,0.835,0.376,0.656,0.610,�k��,2.8,��
2021/06/14,13:50,0.640,0.949,0.598,1.160,0.835,0.374,0.652,0.610,���k��,1.1,��
2021/06/14,14:00,0.641,0.948,0.599,1.163,0.835,0.376,0.655,0.608,���쓌,2.0,��
2021/06/14,14:10,0.641,0.954,0.599,1.161,0.835,0.376,0.656,0.610,���쓌,2.0,��
2021/06/14,14:20,0.639,0.952,0.598,1.163,0.835,0.375,0.656,0.610,��,1.2,��
2021/06/14,14:30,0.640,0.953,0.599,1.159,0.834,0.377,0.654,0.610,�쓌,1.7,��
2021/06/14,14:40,0.640,0.954,0.598,1.160,0.834,0.376,0.655,0.608,�쓌,2.3,��
2021/06/14,14:50,0.639,0.952,0.597,1.161,0.835,0.376,0.654,0.610,�쓌,2.3,��
2021/06/14,15:00,0.640,0.952,0.598,1.163,0.833,0.376,0.656,0.611,�쓌,2.6,��
2021/06/14,15:10,0.639,0.951,0.598,1.160,0.836,0.376,0.653,0.609,��쓌,2.8,��
2021/06/14,15:20,0.638,0.953,0.600,1.161,0.835,0.375,0.654,0.609,��쓌,1.5,��
2021/06/14,15:30,0.638,0.953,0.597,1.161,0.835,0.375,0.654,0.609,��쓌,1.7,��
2021/06/14,15:40,0.641,0.955,0.599,1.162,0.834,0.376,0.655,0.609,��쓌,2.6,��
2021/06/14,15:50,0.641,0.953,0.600,1.161,0.836,0.375,0.653,0.609,��쓌,3.6,��
2021/06/14,16:00,0.641,0.953,0.599,1.162,0.834,0.377,0.654,0.609,��,3.3,��
2021/06/14,16:10,0.640,0.953,0.600,1.162,0.835,0.376,0.654,0.609,��쐼,2.3,��
2021/06/14,16:20,0.640,0.952,0.600,1.163,0.835,0.374,0.654,0.610,��,2.6,��
2021/06/14,16:30,0.641,0.954,0.601,1.165,0.834,0.375,0.654,0.609,��,3.0,��
2021/06/14,16:40,0.643,0.957,0.599,1.162,0.835,0.376,0.656,0.608,��,2.2,��
2021/06/14,16:50,0.642,0.954,0.602,1.164,0.836,0.375,0.656,0.610,��,3.5,��
2021/06/14,17:00,0.642,0.954,0.600,1.167,0.836,0.376,0.654,0.610,��,4.7,��
2021/06/14,17:10,0.643,0.956,0.599,1.165,0.834,0.375,0.657,0.610,��,5.0,��
2021/06/14,17:20,0.642,0.956,0.599,1.164,0.836,0.375,0.656,0.610,��,4.4,��
2021/06/14,17:30,0.643,0.956,0.601,1.162,0.836,0.376,0.657,0.613,��쐼,3.9,��
2021/06/14,17:40,0.643,0.956,0.602,1.166,0.836,0.376,0.657,0.612,��,4.4,��
2021/06/14,17:50,0.645,0.958,0.602,1.163,0.837,0.376,0.655,0.610,��쓌,4.9,��
2021/06/14,18:00,0.642,0.956,0.599,1.164,0.837,0.378,0.658,0.612,��,5.7,��
2021/06/14,18:10,0.642,0.956,0.600,1.164,0.835,0.376,0.657,0.611,��,6.4,��
2021/06/14,18:20,0.644,0.955,0.600,1.166,0.838,0.375,0.656,0.612,��,5.9,��
2021/06/14,18:30,0.643,0.955,0.600,1.165,0.837,0.376,0.655,0.612,��,4.9,��
2021/06/14,18:40,0.643,0.956,0.602,1.165,0.833,0.377,0.655,0.610,��,4.6,��
2021/06/14,18:50,0.642,0.957,0.602,1.164,0.837,0.376,0.657,0.612,��,4.4,��
2021/06/14,19:00,0.642,0.956,0.600,1.165,0.837,0.377,0.657,0.612,��,2.6,��
2021/06/14,19:10,0.642,0.954,0.600,1.165,0.838,0.376,0.656,0.612,��,2.6,��
2021/06/14,19:20,0.642,0.957,0.600,1.166,0.838,0.376,0.655,0.612,��쐼,2.0,��
2021/06/14,19:30,0.641,0.958,0.601,1.168,0.837,0.377,0.658,0.611,��쐼,1.2,��
2021/06/14,19:40,0.643,0.957,0.602,1.164,0.836,0.377,0.657,0.612,��,1.5,��
2021/06/14,19:50,0.643,0.956,0.600,1.165,0.836,0.378,0.656,0.612,��,1.1,��
2021/06/14,20:00,0.644,0.959,0.603,1.166,0.839,0.375,0.655,0.611,��쐼,1.5,��
2021/06/14,20:10,0.645,0.958,0.603,1.163,0.838,0.377,0.657,0.611,�쐼,1.5,��
2021/06/14,20:20,0.643,0.957,0.602,1.164,0.838,0.377,0.659,0.613,��쐼,1.2,��
2021/06/14,20:30,0.645,0.959,0.602,1.165,0.838,0.377,0.655,0.611,��쐼,1.2,��
2021/06/14,20:40,0.641,0.957,0.600,1.165,0.837,0.377,0.656,0.613,�쐼,1.2,��
2021/06/14,20:50,0.645,0.958,0.603,1.167,0.839,0.377,0.657,0.612,��,0.6,��
2021/06/14,21:00,0.644,0.958,0.601,1.167,0.836,0.377,0.658,0.611,-,CALM,��
2021/06/14,21:10,0.643,0.957,0.602,1.164,0.837,0.377,0.657,0.611,��,0.8,��
2021/06/14,21:20,0.645,0.957,0.602,1.165,0.838,0.378,0.657,0.613,�k��,1.5,��
2021/06/14,21:30,0.645,0.958,0.601,1.164,0.837,0.378,0.655,0.611,�k��,2.2,��
2021/06/14,21:40,0.645,0.957,0.600,1.167,0.839,0.376,0.656,0.611,�k��,2.5,��
2021/06/14,21:50,0.645,0.954,0.602,1.165,0.837,0.376,0.656,0.612,�k��,3.6,��
2021/06/14,22:00,0.645,0.955,0.601,1.164,0.838,0.378,0.657,0.612,�k��,4.2,��
2021/06/14,22:10,0.644,0.955,0.602,1.165,0.839,0.377,0.657,0.611,�k�k��,5.1,��
2021/06/14,22:20,0.644,0.955,0.600,1.166,0.836,0.376,0.656,0.612,�k�k��,5.2,��
2021/06/14,22:30,0.644,0.956,0.601,1.163,0.840,0.377,0.657,0.611,�k�k��,4.6,��
2021/06/14,22:40,0.643,0.954,0.601,1.164,0.837,0.377,0.656,0.611,�k�k��,4.3,��
2021/06/14,22:50,0.643,0.958,0.602,1.164,0.838,0.376,0.656,0.610,�k,3.6,��
2021/06/14,23:00,0.642,0.956,0.601,1.165,0.838,0.378,0.657,0.611,�k�k��,3.3,��
2021/06/14,23:10,0.643,0.954,0.602,1.163,0.837,0.378,0.657,0.612,�k�k��,3.6,��
2021/06/14,23:20,0.643,0.955,0.601,1.166,0.838,0.377,0.657,0.612,�k�k��,3.8,��
2021/06/14,23:30,0.641,0.954,0.599,1.164,0.838,0.377,0.658,0.612,�k�k��,4.5,��
2021/06/14,23:40,0.642,0.956,0.599,1.164,0.836,0.377,0.658,0.611,�k�k��,5.6,��
2021/06/14,23:50,0.641,0.952,0.601,1.164,0.839,0.377,0.657,0.612,�k�k��,5.6,��
